Dauntless Aviation
Greetings, Guest! To participate, [sign up for a free account] or [log in]
Airports Europe United Kingdom

Dounreay Thurso


Airport Info


Latitude / Longitude: 58°35'3"N / 3°43'31"W
  58°35.052'N / 3°43.518'W
  58.5842 / -3.7253

Runway Information

Runway 04 /22

Dimensions: 3300 x 100 ft.
Surface: U
Runway 04
Runway 22
Latitude: 58.579444 58.586944
Longitude: -3.731389 -3.721667
Elevation: 130 ft. 130 ft.
Runway true heading: 33.4 213.4
Satellite photo at:
Airport distance calculator
Weather Reports


22.2nm E
EGPC 010150Z AUTO 27011KT 9999 SCT040/// 03/M00 Q1011
34.2nm NE
EGPA 010150Z AUTO 29015G26KT 9999 FEW037/// 04/02 Q1011


22.2nm E
TAF EGPC 302305Z 0100/0109 24009KT 9999 FEW015 BECMG 0104/0107 16015KT BECMG 0106/0109 BKN014
34.2nm NE
TAF EGPA 302305Z 0100/0109 29012KT 9999 FEW025 PROB30 TEMPO 0100/0103 29015G25KT 8000 -SHRA BECMG 0107/0109 14015KT


Dauntless Aviation

© 2007-2015 Dauntless Aviation, all rights reserved
Information provided via PilotNav comes from a variety of official and unofficial data sources. As errors are possible, do not use PilotNav for primary flight planning purposes. Verify any information that you receive via PilotNav with current and canonical charts and other official documents. The material in this database is subject to database copyrights held by Dauntless Aviation and may not be copied without the express permission of Dauntless Aviation - licenses for use of part of all of this data are available for purchase; enquire via the Dauntless Aviation helpdesk. A number of mechanisms and markers exist in the database to protect against and identify infringement / copyright. Automated queries against this website are stictly prohibited, and all activity is logged and analyzed.